contact:dominique.lefevre@mio.osupytheas.fr, maurice.libes@osupytheas.fr, didier.mallarino@osupytheas.fr
Project:EMSO http://www.emso-fr.org/EMSO-France
Depth: 2436.0 m
Title:EMSO Ligure Ouest : Data MII capteur AQUADOPP
Date,Latitude,Longitude,X_East,Y_North,Z_Up,Amplitude_X,Amplitude_Y,Amplitude_Z,Batterie,SoundSpeed,Heading,Pitch,Roll,Pressure,TIS,Speed,Direction
, degrees North, degrees East, m.s-1, m.s-1,m.s-1, 1, 1, 1, Volt, m.s-1, degree, degree, degree, dbar, degree_C, m.s-1, degree
2022-03-24T10:40:03,42.805,6.029,-0.008,-0.021,-0.017,102.0,99.0,99.0,13.4,1505.1,331.5,-0.8,1.8,2471.146,13.27,0.022,200.9
2022-03-24T10:43:03,42.805,6.029,-0.019,-0.014,0.017,100.0,101.0,100.0,13.3,1505.2,331.3,-0.8,1.8,2470.977,13.28,0.023,233.6
2022-03-24T10:46:03,42.805,6.029,-0.011,-0.004,0.0,101.0,101.0,99.0,13.3,1505.2,331.3,-0.7,1.8,2470.829,13.28,0.011,250.0
2022-03-24T10:49:03,42.805,6.029,-0.003,-0.003,-0.008,100.0,99.0,101.0,13.4,1505.2,323.4,-0.8,1.8,2470.744,13.28,0.004,225.0
2022-03-24T10:52:03,42.805,6.029,-0.021,-0.016,0.012,100.0,99.0,100.0,13.4,1505.2,328.7,-0.7,1.8,2470.694,13.28,0.026,232.7
2022-03-24T10:55:03,42.805,6.029,0.003,-0.009,-0.018,99.0,100.0,100.0,13.4,1505.2,323.7,-0.7,1.8,2470.617,13.29,0.009,161.6
2022-03-24T10:58:03,42.805,6.029,-0.013,0.008,0.037,100.0,100.0,100.0,13.4,1505.2,324.6,-0.8,1.8,2470.63,13.29,0.015,301.6
2022-03-24T11:04:03,42.805,6.029,-0.018,0.004,0.003,101.0,100.0,100.0,13.3,1505.2,328.1,-0.8,1.8,2470.666,13.28,0.018,282.5
2022-03-24T11:07:03,42.805,6.029,-0.024,0.015,0.01,99.0,101.0,101.0,13.4,1505.2,327.5,-0.7,1.8,2470.679,13.28,0.028,302.0
2022-03-24T11:10:03,42.805,6.029,-0.028,-0.007,-0.028,99.0,102.0,101.0,13.4,1505.2,329.2,-0.8,1.8,2470.673,13.29,0.028,256.0
2022-03-24T11:13:03,42.805,6.029,-0.034,0.009,0.014,100.0,101.0,100.0,13.3,1505.2,327.9,-0.7,1.8,2470.619,13.29,0.035,284.8
2022-03-24T11:16:03,42.805,6.029,-0.032,0.002,-0.01,102.0,100.0,102.0,13.4,1505.2,325.8,-0.8,1.8,2470.636,13.29,0.032,273.6
2022-03-24T11:19:03,42.805,6.029,-0.046,0.003,0.0,101.0,100.0,99.0,13.4,1505.2,322.7,-0.7,1.8,2470.599,13.29,0.046,273.7
2022-03-24T11:22:03,42.805,6.029,-0.013,-0.002,0.038,101.0,101.0,100.0,13.4,1505.2,329.7,-0.7,1.8,2470.571,13.29,0.013,261.3
2022-03-24T11:25:03,42.805,6.029,-0.023,-0.026,0.005,102.0,100.0,102.0,13.4,1505.2,325.5,-0.8,1.8,2470.588,13.29,0.034,221.5
2022-03-24T11:28:03,42.805,6.029,-0.044,-0.008,-0.012,100.0,101.0,100.0,13.4,1505.2,326.8,-0.7,1.8,2470.589,13.29,0.044,259.7
2022-03-24T11:31:03,42.805,6.029,-0.013,-0.012,0.007,100.0,101.0,100.0,13.4,1505.2,326.3,-0.7,1.8,2470.584,13.29,0.017,227.3
2022-03-24T11:34:03,42.805,6.029,-0.012,-0.02,0.018,101.0,101.0,101.0,13.4,1505.2,323.4,-0.8,1.8,2470.598,13.29,0.023,211.0
2022-03-24T11:37:03,42.805,6.029,-0.061,0.012,0.001,101.0,99.0,102.0,13.4,1505.2,330.3,-0.8,1.8,2470.598,13.29,0.062,281.1
2022-03-24T11:40:03,42.805,6.029,-0.031,0.001,-0.012,101.0,101.0,100.0,13.4,1505.2,329.5,-0.8,1.8,2470.616,13.29,0.031,271.8
2022-03-24T11:43:03,42.805,6.029,-0.008,-0.013,0.003,101.0,101.0,101.0,13.4,1505.2,328.0,-0.8,1.9,2470.627,13.29,0.015,211.6
2022-03-24T11:46:03,42.805,6.029,-0.02,0.001,0.007,103.0,99.0,101.0,13.4,1505.2,330.5,-0.8,1.8,2470.601,13.29,0.02,272.9
2022-03-24T11:49:03,42.805,6.029,-0.038,-0.02,0.006,100.0,102.0,100.0,13.4,1505.2,328.5,-0.8,1.8,2470.602,13.29,0.042,242.2
2022-03-24T11:52:03,42.805,6.029,-0.04,0.003,0.016,101.0,102.0,101.0,13.4,1505.2,323.4,-0.8,1.8,2470.627,13.29,0.04,274.3
2022-03-24T11:55:03,42.805,6.029,-0.012,-0.006,0.007,102.0,103.0,100.0,13.4,1505.2,327.4,-0.7,1.8,2470.627,13.29,0.013,243.4
2022-03-24T11:58:02,42.805,6.029,-0.026,0.009,0.028,100.0,102.0,101.0,13.3,1505.2,328.6,-0.8,1.8,2470.6,13.29,0.027,289.1
2022-03-24T12:04:03,42.805,6.029,-0.02,-0.003,0.015,101.0,101.0,101.0,13.3,1505.2,323.3,-0.8,1.8,2470.71,13.28,0.02,261.5
2022-03-24T12:07:03,42.805,6.029,-0.023,0.003,0.034,102.0,101.0,100.0,13.3,1505.2,326.3,-0.7,1.8,2470.652,13.29,0.023,277.4
2022-03-24T12:10:03,42.805,6.029,-0.031,0.003,0.01,101.0,103.0,100.0,13.4,1505.2,322.9,-0.8,1.8,2470.67,13.29,0.031,275.5
2022-03-24T12:13:03,42.805,6.029,-0.026,0.006,0.027,100.0,100.0,101.0,13.3,1505.2,325.8,-0.8,1.8,2470.636,13.29,0.026,283.0
2022-03-24T12:16:03,42.805,6.029,-0.022,0.008,0.041,100.0,102.0,101.0,13.3,1505.2,329.2,-0.8,1.9,2470.646,13.29,0.023,290.0
2022-03-24T12:19:03,42.805,6.029,-0.022,-0.006,-0.01,99.0,103.0,100.0,13.4,1505.2,323.1,-0.7,1.8,2470.634,13.29,0.022,254.7
2022-03-24T12:22:03,42.805,6.029,-0.025,0.006,-0.012,103.0,101.0,100.0,13.4,1505.2,329.1,-0.8,1.8,2470.648,13.29,0.025,283.5
2022-03-24T12:25:03,42.805,6.029,-0.011,0.0,-0.01,102.0,102.0,101.0,13.4,1505.2,324.3,-0.7,1.8,2470.642,13.29,0.011,270.0
2022-03-24T12:28:03,42.805,6.029,-0.046,0.019,0.008,101.0,101.0,101.0,13.3,1505.2,323.3,-0.8,1.8,2470.601,13.29,0.049,292.4
2022-03-24T12:31:03,42.805,6.029,-0.033,0.002,0.033,100.0,100.0,100.0,13.4,1505.2,324.2,-0.7,1.8,2470.587,13.29,0.033,273.5
2022-03-24T12:34:03,42.805,6.029,-0.033,0.014,0.025,101.0,101.0,100.0,13.4,1505.2,326.7,-0.7,1.8,2470.645,13.29,0.035,293.0
2022-03-24T12:37:03,42.805,6.029,-0.018,-0.002,-0.007,101.0,101.0,99.0,13.4,1505.2,327.7,-0.8,1.8,2470.614,13.29,0.018,263.7
2022-03-24T12:40:03,42.805,6.029,-0.024,0.007,0.018,100.0,101.0,101.0,13.4,1505.2,328.5,-0.8,1.8,2470.628,13.29,0.025,286.3
2022-03-24T12:43:03,42.805,6.029,-0.011,0.01,0.031,100.0,101.0,101.0,13.4,1505.2,327.9,-0.7,1.8,2470.627,13.29,0.014,312.3
2022-03-24T12:46:03,42.805,6.029,-0.016,0.004,-0.009,102.0,101.0,103.0,13.4,1505.2,323.6,-0.7,1.8,2470.623,13.29,0.016,284.0
2022-03-24T12:49:03,42.805,6.029,-0.019,0.0,0.02,101.0,101.0,100.0,13.3,1505.2,327.5,-0.8,1.8,2470.585,13.29,0.019,270.0
2022-03-24T12:52:03,42.805,6.029,-0.04,0.005,0.023,100.0,102.0,101.0,13.4,1505.2,322.9,-0.7,1.8,2470.593,13.29,0.04,277.1
2022-03-24T12:55:03,42.805,6.029,-0.005,0.018,-0.006,102.0,101.0,101.0,13.4,1505.2,326.1,-0.8,1.8,2470.644,13.29,0.018,344.5
2022-03-24T12:58:03,42.805,6.029,-0.017,0.023,0.016,100.0,102.0,102.0,13.4,1505.2,325.8,-0.7,1.8,2470.643,13.29,0.028,323.5
2022-03-24T13:04:03,42.805,6.029,-0.021,0.001,0.006,101.0,101.0,101.0,13.4,1505.2,328.8,-0.8,1.8,2470.65,13.29,0.021,272.7
2022-03-24T13:07:03,42.805,6.029,-0.012,-0.022,0.009,102.0,102.0,100.0,13.4,1505.2,325.4,-0.8,1.8,2470.668,13.29,0.025,208.6
2022-03-24T13:10:03,42.805,6.029,-0.028,0.007,-0.021,102.0,101.0,100.0,13.4,1505.2,332.6,-0.7,1.9,2470.636,13.29,0.028,284.0
2022-03-24T13:13:03,42.805,6.029,-0.019,0.003,-0.003,102.0,101.0,101.0,13.4,1505.2,329.8,-0.8,1.8,2470.648,13.29,0.019,279.0
2022-03-24T13:16:03,42.805,6.029,-0.015,-0.009,0.007,102.0,101.0,101.0,13.3,1505.2,327.6,-0.8,1.8,2470.639,13.29,0.017,239.0
2022-03-24T13:19:03,42.805,6.029,-0.039,0.0,-0.005,102.0,102.0,100.0,13.4,1505.2,331.3,-0.7,1.8,2470.63,13.29,0.039,270.0
2022-03-24T13:22:03,42.805,6.029,-0.016,-0.005,0.026,101.0,102.0,100.0,13.4,1505.2,332.4,-0.7,1.8,2470.651,13.29,0.016,252.6
2022-03-24T13:25:03,42.805,6.029,-0.031,-0.006,0.018,101.0,100.0,100.0,13.3,1505.2,324.5,-0.7,1.8,2470.612,13.29,0.031,259.0
2022-03-24T13:28:03,42.805,6.029,-0.026,0.004,0.019,101.0,100.0,101.0,13.4,1505.2,331.8,-0.8,1.8,2470.588,13.29,0.026,278.7
2022-03-24T13:31:03,42.805,6.029,-0.024,0.001,0.008,102.0,103.0,100.0,13.4,1505.2,328.4,-0.8,1.8,2470.642,13.29,0.024,272.4
2022-03-24T13:34:03,42.805,6.029,-0.03,-0.008,-0.027,100.0,102.0,100.0,13.4,1505.2,330.8,-0.8,1.8,2470.621,13.29,0.031,255.1
2022-03-24T13:37:03,42.805,6.029,-0.021,0.014,0.008,101.0,102.0,100.0,13.4,1505.2,324.6,-0.8,1.8,2470.598,13.29,0.025,303.7
2022-03-24T13:40:03,42.805,6.029,-0.01,0.004,-0.003,103.0,101.0,101.0,13.4,1505.2,328.7,-0.8,1.8,2470.622,13.29,0.01,291.8
2022-03-24T13:43:03,42.805,6.029,-0.003,0.018,0.021,101.0,102.0,100.0,13.3,1505.2,327.9,-0.7,1.8,2470.645,13.29,0.018,350.5
2022-03-24T13:46:03,42.805,6.029,-0.009,0.001,0.0,103.0,99.0,101.0,13.4,1505.2,324.5,-0.7,1.8,2470.602,13.29,0.009,276.3
2022-03-24T13:49:03,42.805,6.029,-0.021,0.014,0.02,102.0,101.0,101.0,13.4,1505.2,323.8,-0.8,1.8,2470.642,13.29,0.025,303.7
2022-03-24T13:52:03,42.805,6.029,-0.024,0.003,0.02,100.0,102.0,103.0,13.4,1505.2,324.2,-0.7,1.8,2470.594,13.29,0.024,277.1
2022-03-24T13:55:03,42.805,6.029,-0.014,0.0,0.01,103.0,101.0,101.0,13.4,1505.2,331.7,-0.7,1.8,2470.601,13.29,0.014,270.0
2022-03-24T13:58:03,42.805,6.029,-0.019,0.006,0.046,101.0,101.0,101.0,13.4,1505.2,328.0,-0.8,1.9,2470.626,13.29,0.019,287.5
2022-03-24T14:04:03,42.805,6.029,-0.016,0.017,0.024,101.0,101.0,101.0,13.3,1505.2,327.3,-0.7,1.8,2470.667,13.29,0.023,316.7
2022-03-24T14:07:03,42.805,6.029,-0.027,0.014,0.022,100.0,102.0,102.0,13.4,1505.2,324.3,-0.7,1.8,2470.661,13.29,0.03,297.4
2022-03-24T14:10:03,42.805,6.029,-0.038,-0.002,0.006,102.0,102.0,102.0,13.4,1505.2,325.0,-0.8,1.8,2470.663,13.29,0.038,267.0
2022-03-24T14:13:03,42.805,6.029,-0.003,-0.005,-0.01,103.0,100.0,101.0,13.4,1505.2,323.9,-0.8,1.8,2470.606,13.29,0.005,211.0
2022-03-24T14:16:03,42.805,6.029,0.0,0.003,0.048,102.0,102.0,102.0,13.4,1505.2,331.9,-0.8,1.9,2470.615,13.29,0.003,0.0
2022-03-24T14:19:03,42.805,6.029,-0.026,-0.002,0.011,102.0,102.0,100.0,13.4,1505.2,330.3,-0.7,1.8,2470.6,13.29,0.026,265.6
2022-03-24T14:22:03,42.805,6.029,0.003,-0.009,0.014,101.0,102.0,101.0,13.3,1505.2,325.0,-0.8,1.8,2470.616,13.29,0.009,161.6
2022-03-24T14:25:03,42.805,6.029,-0.015,-0.004,0.006,101.0,102.0,101.0,13.4,1505.2,325.3,-0.8,1.8,2470.638,13.29,0.015,255.1
2022-03-24T14:28:03,42.805,6.029,-0.022,-0.004,-0.018,102.0,102.0,100.0,13.4,1505.2,328.5,-0.7,1.8,2470.595,13.29,0.022,259.7
2022-03-24T14:31:03,42.805,6.029,-0.007,-0.001,0.024,101.0,101.0,100.0,13.4,1505.2,329.6,-0.7,1.8,2470.58,13.29,0.007,261.9
2022-03-24T14:34:03,42.805,6.029,-0.029,0.005,-0.008,101.0,101.0,101.0,13.4,1505.2,326.6,-0.8,1.8,2470.59,13.29,0.029,279.8
2022-03-24T14:37:03,42.805,6.029,-0.032,0.004,0.001,101.0,101.0,101.0,13.4,1505.2,325.7,-0.8,1.8,2470.577,13.29,0.032,277.1
2022-03-24T14:40:03,42.805,6.029,0.009,-0.008,0.015,102.0,101.0,100.0,13.3,1505.2,332.0,-0.8,1.9,2470.629,13.29,0.012,131.6
2022-03-24T14:43:03,42.805,6.029,-0.024,0.011,0.001,101.0,100.0,101.0,13.4,1505.2,326.8,-0.7,1.9,2470.621,13.29,0.026,294.6
2022-03-24T14:46:03,42.805,6.029,-0.025,-0.011,0.007,102.0,99.0,100.0,13.4,1505.2,322.7,-0.8,1.9,2470.579,13.29,0.027,246.3
2022-03-24T14:49:03,42.805,6.029,-0.02,-0.005,0.014,100.0,102.0,100.0,13.3,1505.2,326.4,-0.7,1.8,2470.585,13.29,0.02,256.0
2022-03-24T14:52:03,42.805,6.029,-0.017,0.007,-0.02,101.0,100.0,101.0,13.4,1505.2,331.9,-0.8,1.8,2470.594,13.29,0.018,292.4
2022-03-24T14:55:03,42.805,6.029,-0.008,-0.003,0.041,100.0,105.0,100.0,13.4,1505.2,330.2,-0.7,1.8,2470.627,13.29,0.008,249.4
2022-03-24T14:58:03,42.805,6.029,-0.008,0.0,-0.004,101.0,101.0,99.0,13.4,1505.2,332.5,-0.8,1.8,2470.594,13.29,0.008,270.0
2022-03-24T15:04:03,42.805,6.029,-0.019,0.007,0.015,101.0,107.0,100.0,13.3,1505.2,324.5,-0.8,1.8,2470.632,13.29,0.02,290.2
2022-03-24T15:07:03,42.805,6.029,-0.006,-0.001,-0.011,101.0,101.0,100.0,13.4,1505.2,327.0,-0.7,1.9,2470.664,13.29,0.006,260.5
2022-03-24T15:10:03,42.805,6.029,-0.015,-0.002,0.012,101.0,101.0,99.0,13.4,1505.2,323.1,-0.7,1.8,2470.623,13.29,0.015,262.4
2022-03-24T15:13:03,42.805,6.029,-0.021,0.011,-0.017,101.0,103.0,99.0,13.3,1505.2,325.2,-0.7,1.8,2470.663,13.29,0.023,297.6
2022-03-24T15:16:03,42.805,6.029,0.005,-0.002,0.022,100.0,102.0,100.0,13.4,1505.2,327.7,-0.8,1.8,2470.628,13.29,0.005,111.8
2022-03-24T15:19:03,42.805,6.029,-0.02,-0.002,0.0,102.0,102.0,100.0,13.4,1505.2,323.3,-0.8,1.8,2470.61,13.29,0.02,264.3
2022-03-24T15:22:03,42.805,6.029,-0.004,-0.004,0.008,100.0,101.0,101.0,13.4,1505.2,332.6,-0.8,1.8,2470.608,13.29,0.005,225.0
2022-03-24T15:25:03,42.805,6.029,-0.016,-0.001,0.0,100.0,102.0,101.0,13.4,1505.2,331.5,-0.8,1.8,2470.586,13.29,0.016,266.4
2022-03-24T15:28:03,42.805,6.029,-0.026,0.024,0.014,100.0,101.0,100.0,13.3,1505.2,330.6,-0.8,1.8,2470.634,13.29,0.035,312.7
2022-03-24T15:31:03,42.805,6.029,0.0,-0.037,-0.017,101.0,100.0,101.0,13.4,1505.2,329.4,-0.7,1.8,2470.582,13.29,0.037,180.0
2022-03-24T15:34:03,42.805,6.029,0.006,-0.005,-0.005,101.0,100.0,101.0,13.4,1505.2,324.7,-0.7,1.8,2470.541,13.29,0.007,129.8
2022-03-24T15:37:03,42.805,6.029,-0.002,0.011,0.031,103.0,101.0,100.0,13.4,1505.2,325.6,-0.8,1.8,2470.605,13.29,0.011,349.7
2022-03-24T15:40:03,42.805,6.029,-0.011,-0.007,-0.017,100.0,100.0,100.0,13.4,1505.2,332.9,-0.7,1.8,2470.615,13.29,0.013,237.5
2022-03-24T15:43:03,42.805,6.029,-0.018,0.017,0.003,99.0,101.0,100.0,13.4,1505.2,332.9,-0.7,1.8,2470.616,13.29,0.024,313.4
2022-03-24T15:46:03,42.805,6.029,-0.011,0.0,-0.015,100.0,103.0,100.0,13.4,1505.2,330.7,-0.7,1.8,2470.639,13.29,0.011,270.0
2022-03-24T15:49:03,42.805,6.029,-0.003,-0.005,0.019,102.0,101.0,100.0,13.3,1505.2,330.7,-0.7,1.8,2470.585,13.29,0.005,211.0
2022-03-24T15:52:03,42.805,6.029,0.01,-0.026,-0.003,101.0,100.0,100.0,13.3,1505.2,328.5,-0.8,1.8,2470.574,13.29,0.027,159.0
2022-03-24T15:55:03,42.805,6.029,0.01,-0.015,0.009,102.0,101.0,100.0,13.4,1505.2,322.4,-0.8,1.8,2470.619,13.29,0.018,146.3
2022-03-24T15:58:03,42.805,6.029,-0.022,-0.016,-0.017,100.0,101.0,99.0,13.4,1505.2,332.2,-0.8,1.8,2470.586,13.29,0.027,234.0
2022-03-24T16:04:03,42.805,6.029,-0.002,-0.027,0.009,100.0,100.0,100.0,13.4,1505.2,325.6,-0.7,1.8,2470.631,13.29,0.027,184.2
2022-03-24T16:07:03,42.805,6.029,-0.008,-0.018,-0.011,101.0,101.0,101.0,13.4,1505.2,325.0,-0.8,1.8,2470.639,13.29,0.019,204.0
2022-03-24T16:10:03,42.805,6.029,-0.04,-0.016,-0.048,101.0,101.0,101.0,13.4,1505.2,328.0,-0.8,1.8,2470.636,13.29,0.043,248.2
2022-03-24T16:13:03,42.805,6.029,-0.013,-0.007,0.025,101.0,101.0,100.0,13.4,1505.2,328.6,-0.8,1.8,2470.608,13.29,0.014,241.7
2022-03-24T16:16:03,42.805,6.029,0.0,-0.015,-0.004,101.0,101.0,100.0,13.4,1505.2,325.4,-0.7,1.8,2470.605,13.29,0.015,180.0
2022-03-24T16:19:03,42.805,6.029,-0.024,0.003,0.001,101.0,99.0,101.0,13.3,1505.2,322.6,-0.7,1.8,2470.595,13.29,0.024,277.1
2022-03-24T16:22:03,42.805,6.029,-0.032,-0.003,-0.013,99.0,101.0,100.0,13.4,1505.2,330.2,-0.8,1.8,2470.578,13.29,0.032,264.6
2022-03-24T16:25:03,42.805,6.029,-0.016,-0.018,-0.005,101.0,100.0,100.0,13.4,1505.2,325.7,-0.8,1.8,2470.579,13.29,0.024,221.6
2022-03-24T16:28:03,42.805,6.029,-0.007,-0.017,-0.016,100.0,101.0,100.0,13.4,1505.2,328.2,-0.7,1.8,2470.583,13.29,0.018,202.4
2022-03-24T16:31:03,42.805,6.029,-0.015,0.001,0.065,101.0,99.0,100.0,13.4,1505.2,330.3,-0.7,1.8,2470.566,13.29,0.015,273.8
2022-03-24T16:34:03,42.805,6.029,-0.016,-0.011,0.006,101.0,101.0,100.0,13.4,1505.2,325.2,-0.8,1.8,2470.586,13.29,0.019,235.5
2022-03-24T16:37:03,42.805,6.029,-0.006,-0.008,0.035,101.0,99.0,100.0,13.3,1505.2,324.9,-0.8,1.8,2470.595,13.29,0.01,216.9
2022-03-24T16:40:03,42.805,6.029,-0.012,-0.003,-0.014,100.0,100.0,100.0,13.4,1505.2,331.9,-0.8,1.8,2470.58,13.29,0.012,256.0
2022-03-24T16:43:03,42.805,6.029,-0.024,0.0,0.002,101.0,101.0,99.0,13.4,1505.2,325.2,-0.8,1.8,2470.594,13.29,0.024,270.0
2022-03-24T16:46:03,42.805,6.029,0.004,-0.015,0.033,99.0,101.0,99.0,13.3,1505.2,331.2,-0.8,1.8,2470.635,13.29,0.015,165.1
2022-03-24T16:49:03,42.805,6.029,-0.029,-0.006,0.0,100.0,100.0,100.0,13.4,1505.2,325.3,-0.7,1.8,2470.586,13.29,0.029,258.3
2022-03-24T16:52:03,42.805,6.029,0.002,0.007,0.044,99.0,100.0,100.0,13.4,1505.2,327.1,-0.8,1.8,2470.599,13.29,0.007,15.9
2022-03-24T16:55:03,42.805,6.029,0.003,-0.02,-0.01,98.0,100.0,100.0,13.4,1505.2,325.1,-0.8,1.8,2470.597,13.29,0.02,171.5
2022-03-24T16:58:03,42.805,6.029,0.001,-0.021,0.0,100.0,101.0,98.0,13.4,1505.2,328.7,-0.8,1.9,2470.57,13.29,0.021,177.3
2022-03-24T17:04:03,42.805,6.029,-0.02,-0.014,0.009,100.0,100.0,100.0,13.4,1505.2,322.5,-0.8,1.8,2470.594,13.29,0.024,235.0
2022-03-24T17:07:03,42.805,6.029,-0.007,0.004,0.03,99.0,99.0,101.0,13.4,1505.2,325.9,-0.8,1.8,2470.63,13.29,0.008,299.7
2022-03-24T17:10:03,42.805,6.029,-0.001,0.001,0.029,98.0,101.0,100.0,13.4,1505.2,327.8,-0.8,1.8,2470.646,13.29,0.001,315.0
2022-03-24T17:13:03,42.805,6.029,-0.004,-0.035,-0.026,99.0,100.0,101.0,13.4,1505.2,329.1,-0.7,1.8,2470.577,13.29,0.035,186.5
2022-03-24T17:16:03,42.805,6.029,-0.024,0.013,0.02,99.0,101.0,100.0,13.4,1505.2,327.9,-0.8,1.8,2470.618,13.29,0.027,298.4
2022-03-24T17:19:03,42.805,6.029,-0.041,-0.008,-0.05,100.0,100.0,99.0,13.4,1505.2,330.1,-0.8,1.8,2470.608,13.29,0.041,259.0
2022-03-24T17:22:03,42.805,6.029,-0.014,-0.006,-0.011,101.0,100.0,101.0,13.4,1505.2,331.8,-0.8,1.8,2470.585,13.29,0.015,246.8
2022-03-24T17:25:03,42.805,6.029,-0.001,-0.055,-0.073,102.0,100.0,100.0,13.3,1505.2,325.8,-0.8,1.8,2470.571,13.29,0.055,181.0
2022-03-24T17:28:03,42.805,6.029,0.002,-0.014,0.012,102.0,100.0,100.0,13.4,1505.2,328.3,-0.7,1.8,2470.589,13.29,0.014,171.9
2022-03-24T17:31:03,42.805,6.029,-0.034,-0.006,-0.01,101.0,100.0,100.0,13.4,1505.2,327.8,-0.7,1.8,2470.576,13.29,0.034,260.0
2022-03-24T17:34:03,42.805,6.029,0.003,-0.001,-0.004,105.0,100.0,100.0,13.4,1505.2,324.7,-0.8,1.8,2470.53,13.29,0.003,108.4
2022-03-24T17:37:03,42.805,6.029,-0.012,-0.025,-0.021,102.0,102.0,100.0,13.4,1505.2,327.5,-0.7,1.8,2470.579,13.29,0.027,205.6
2022-03-24T17:40:03,42.805,6.029,-0.015,-0.01,-0.007,100.0,100.0,101.0,13.3,1505.2,331.4,-0.7,1.9,2470.551,13.29,0.018,236.3
2022-03-24T17:43:03,42.805,6.029,-0.013,-0.003,0.015,103.0,100.0,100.0,13.3,1505.2,329.0,-0.7,1.8,2470.578,13.29,0.013,257.0
2022-03-24T17:46:03,42.805,6.029,-0.005,-0.008,0.0,99.0,101.0,102.0,13.3,1505.2,328.9,-0.7,1.8,2470.558,13.29,0.009,212.0
2022-03-24T17:49:03,42.805,6.029,0.008,-0.028,-0.007,101.0,101.0,100.0,13.3,1505.2,330.9,-0.8,1.8,2470.569,13.29,0.029,164.1
2022-03-24T17:52:03,42.805,6.029,0.014,-0.008,0.014,101.0,100.0,100.0,13.4,1505.2,329.6,-0.7,1.8,2470.558,13.29,0.016,119.7
2022-03-24T17:55:03,42.805,6.029,-0.006,-0.01,0.018,102.0,99.0,100.0,13.3,1505.2,325.2,-0.7,1.8,2470.565,13.29,0.011,211.0
2022-03-24T17:58:03,42.805,6.029,-0.015,-0.004,0.022,99.0,100.0,100.0,13.4,1505.2,331.0,-0.8,1.8,2470.568,13.29,0.015,255.1
2022-03-24T18:04:03,42.805,6.029,-0.006,-0.003,-0.008,101.0,101.0,100.0,13.4,1505.2,325.2,-0.7,1.8,2470.637,13.29,0.006,243.4
2022-03-24T18:07:03,42.805,6.029,-0.035,-0.001,0.009,99.0,101.0,99.0,13.3,1505.2,326.6,-0.7,1.8,2470.621,13.29,0.035,268.4
2022-03-24T18:10:03,42.805,6.029,0.007,-0.02,-0.012,102.0,100.0,99.0,13.3,1505.2,326.6,-0.8,1.8,2470.59,13.29,0.021,160.7
2022-03-24T18:13:03,42.805,6.029,-0.023,-0.015,0.001,100.0,102.0,99.0,13.3,1505.2,327.6,-0.8,1.8,2470.619,13.29,0.027,236.9
2022-03-24T18:16:03,42.805,6.029,-0.04,0.003,0.006,99.0,100.0,101.0,13.3,1505.2,326.6,-0.8,1.8,2470.574,13.29,0.04,274.3
2022-03-24T18:19:03,42.805,6.029,0.013,-0.009,0.021,100.0,98.0,101.0,13.4,1505.2,332.1,-0.7,1.8,2470.602,13.29,0.015,124.7
2022-03-24T18:22:03,42.805,6.029,0.003,-0.031,-0.025,100.0,100.0,99.0,13.4,1505.2,332.9,-0.7,1.8,2470.573,13.29,0.031,174.5
2022-03-24T18:25:03,42.805,6.029,0.025,-0.022,0.003,100.0,100.0,101.0,13.3,1505.2,323.5,-0.7,1.8,2470.574,13.29,0.033,131.3
2022-03-24T18:28:03,42.805,6.029,-0.021,-0.011,-0.002,99.0,100.0,100.0,13.4,1505.2,326.0,-0.7,1.8,2470.615,13.29,0.023,242.4
2022-03-24T18:31:03,42.805,6.029,0.018,-0.006,0.025,100.0,100.0,100.0,13.3,1505.2,326.5,-0.8,1.8,2470.573,13.29,0.018,108.4
2022-03-24T18:34:03,42.805,6.029,0.001,-0.018,0.034,99.0,101.0,100.0,13.4,1505.2,324.8,-0.7,1.8,2470.546,13.29,0.018,176.8
2022-03-24T18:37:03,42.805,6.029,-0.009,-0.009,-0.021,100.0,102.0,100.0,13.4,1505.2,322.9,-0.8,1.8,2470.579,13.29,0.012,225.0
2022-03-24T18:40:03,42.805,6.029,-0.016,-0.013,0.013,101.0,100.0,100.0,13.4,1505.2,330.6,-0.8,1.8,2470.556,13.29,0.02,230.9
2022-03-24T18:43:03,42.805,6.029,-0.027,-0.034,-0.012,100.0,100.0,101.0,13.4,1505.2,328.8,-0.8,1.8,2470.53,13.29,0.043,218.5
2022-03-24T18:46:03,42.805,6.029,0.004,-0.014,0.002,103.0,101.0,100.0,13.3,1505.2,323.4,-0.8,1.8,2470.56,13.29,0.014,164.1
2022-03-24T18:49:03,42.805,6.029,-0.007,-0.008,-0.006,102.0,100.0,99.0,13.4,1505.2,327.3,-0.8,1.8,2470.546,13.3,0.01,221.2
2022-03-24T18:52:03,42.805,6.029,-0.03,-0.008,-0.007,101.0,100.0,101.0,13.4,1505.2,326.7,-0.7,1.8,2470.601,13.3,0.031,255.1
2022-03-24T18:55:03,42.805,6.029,-0.022,0.0,0.011,100.0,100.0,100.0,13.4,1505.2,328.3,-0.8,1.8,2470.539,13.3,0.022,270.0
2022-03-24T18:58:03,42.805,6.029,-0.001,-0.029,-0.015,99.0,100.0,101.0,13.4,1505.2,324.4,-0.8,1.8,2470.576,13.3,0.029,182.0
2022-03-24T19:04:03,42.805,6.029,-0.003,-0.01,-0.008,102.0,99.0,101.0,13.3,1505.2,327.4,-0.8,1.8,2470.613,13.29,0.01,196.7
2022-03-24T19:07:03,42.805,6.029,-0.003,0.006,-0.019,102.0,103.0,99.0,13.4,1505.2,328.2,-0.8,1.8,2470.62,13.29,0.006,333.4
2022-03-24T19:10:03,42.805,6.029,-0.007,0.005,0.025,100.0,100.0,101.0,13.4,1505.2,331.2,-0.7,1.8,2470.611,13.29,0.008,305.5
2022-03-24T19:13:03,42.805,6.029,-0.003,-0.022,-0.003,100.0,101.0,100.0,13.4,1505.2,330.8,-0.8,1.8,2470.601,13.29,0.022,187.8
2022-03-24T19:16:03,42.805,6.029,-0.028,-0.019,-0.014,100.0,101.0,100.0,13.3,1505.2,328.4,-0.7,1.8,2470.598,13.29,0.033,235.8
2022-03-24T19:19:03,42.805,6.029,0.003,0.001,0.023,98.0,101.0,101.0,13.3,1505.2,325.5,-0.7,1.9,2470.624,13.29,0.003,71.6
2022-03-24T19:22:03,42.805,6.029,-0.002,-0.005,0.033,100.0,100.0,99.0,13.4,1505.2,325.7,-0.7,1.8,2470.601,13.29,0.005,201.8
2022-03-24T19:25:03,42.805,6.029,-0.023,0.003,0.015,99.0,102.0,100.0,13.4,1505.2,325.6,-0.8,1.8,2470.605,13.29,0.023,277.4
2022-03-24T19:28:03,42.805,6.029,-0.009,-0.014,-0.002,100.0,100.0,100.0,13.4,1505.2,325.1,-0.8,1.8,2470.577,13.29,0.016,212.7
2022-03-24T19:31:03,42.805,6.029,0.004,-0.007,0.004,99.0,99.0,102.0,13.4,1505.2,322.9,-0.7,1.8,2470.579,13.29,0.008,150.3
2022-03-24T19:34:03,42.805,6.029,0.008,-0.021,-0.008,100.0,101.0,100.0,13.3,1505.2,325.9,-0.7,1.8,2470.56,13.29,0.022,159.1
2022-03-24T19:37:03,42.805,6.029,-0.01,0.014,0.012,100.0,100.0,101.0,13.4,1505.2,330.4,-0.7,1.8,2470.554,13.29,0.017,324.5
2022-03-24T19:40:03,42.805,6.029,0.011,-0.013,-0.007,99.0,101.0,101.0,13.3,1505.2,325.1,-0.7,1.9,2470.59,13.29,0.017,139.8
2022-03-24T19:43:03,42.805,6.029,-0.01,0.0,0.014,102.0,101.0,101.0,13.4,1505.2,328.9,-0.7,1.8,2470.591,13.29,0.01,270.0
2022-03-24T19:46:03,42.805,6.029,-0.025,-0.02,-0.005,98.0,100.0,101.0,13.3,1505.2,325.3,-0.7,1.8,2470.615,13.29,0.032,231.3
2022-03-24T19:49:03,42.805,6.029,-0.003,-0.018,-0.016,100.0,99.0,100.0,13.4,1505.2,323.1,-0.8,1.8,2470.577,13.29,0.018,189.5
2022-03-24T19:52:03,42.805,6.029,0.003,-0.001,0.024,100.0,100.0,100.0,13.4,1505.2,326.7,-0.8,1.8,2470.578,13.29,0.003,108.4
2022-03-24T19:55:03,42.805,6.029,0.013,-0.01,0.015,101.0,100.0,100.0,13.3,1505.2,328.7,-0.8,1.9,2470.548,13.29,0.016,127.6
2022-03-24T19:58:03,42.805,6.029,0.012,-0.021,0.0,99.0,100.0,100.0,13.3,1505.2,329.8,-0.7,1.8,2470.623,13.29,0.024,150.3
2022-03-24T20:04:03,42.805,6.029,-0.028,-0.004,0.016,100.0,102.0,100.0,13.4,1505.2,326.7,-0.8,1.8,2470.62,13.29,0.028,261.9
2022-03-24T20:07:03,42.805,6.029,-0.008,0.001,-0.004,100.0,101.0,100.0,13.3,1505.2,326.5,-0.8,1.8,2470.632,13.29,0.008,277.1
2022-03-24T20:10:03,42.805,6.029,-0.011,-0.017,0.021,100.0,101.0,100.0,13.4,1505.2,323.0,-0.8,1.8,2470.681,13.29,0.02,212.9
2022-03-24T20:13:03,42.805,6.029,-0.029,-0.012,0.007,103.0,101.0,100.0,13.4,1505.2,329.6,-0.8,1.8,2470.616,13.29,0.031,247.5
2022-03-24T20:16:03,42.805,6.029,-0.008,-0.019,-0.011,100.0,102.0,99.0,13.3,1505.2,327.5,-0.8,1.8,2470.653,13.29,0.02,202.8
2022-03-24T20:19:03,42.805,6.029,0.001,0.003,0.006,100.0,102.0,100.0,13.4,1505.2,331.3,-0.8,1.8,2470.639,13.29,0.003,18.4
2022-03-24T20:22:03,42.805,6.029,0.015,-0.008,0.001,100.0,100.0,101.0,13.3,1505.2,328.9,-0.8,1.8,2470.609,13.29,0.017,118.1
2022-03-24T20:25:03,42.805,6.029,0.019,-0.032,-0.01,100.0,102.0,100.0,13.4,1505.2,326.2,-0.7,1.8,2470.615,13.29,0.037,149.3
2022-03-24T20:28:03,42.805,6.029,0.002,-0.023,0.016,100.0,100.0,100.0,13.4,1505.2,330.1,-0.8,1.8,2470.651,13.29,0.023,175.0
2022-03-24T20:31:03,42.805,6.029,-0.025,0.0,-0.008,102.0,100.0,100.0,13.3,1505.2,331.2,-0.7,1.8,2470.634,13.29,0.025,270.0
2022-03-24T20:34:03,42.805,6.029,-0.01,-0.006,-0.001,100.0,100.0,100.0,13.4,1505.2,332.2,-0.7,1.8,2470.627,13.29,0.011,239.0